Location: Ay?beleni
(36.6500°N, 30.3000°E)
Time: 13:18:14
(UTC+00:00)

ISS - Pass Details

Date: 05 August 2021
Orbit: 419 x 423 km, 51.6° (Epoch: 21 September)

Event Time Altitude Azimuth Distance (km) Brightness Sun altitude
Rises 17:06:41 0° 310° (NW) 2,377 1.9 -1.9°
Reaches altitude 10° 17:08:48 10° 309° (NW) 1,508 0.7 -2.3°
Maximum altitude 17:12:11 83° 224° (SW) 428 -3.6 -2.9°
Drops below altitude 10° 17:15:33 10° 135° (SE) 1,496 -1.5 -3.5°
Enters shadow 17:16:53 - 134° (SE) 2,046 -0.9 -3.8°
